Погода в Маневичах

Украина / Волынская область     51°17′33″N   25°32′02″E
темп.,
°C
ветер,
м/с
пор.,
м/с
влажн.,
%
обл.,
%
осадки,
мм/ч
давл.,
гПа
погр.,
м
13 мая, чт
чт1300:00+8юв37825 0.0 1011149
03:00+6юв368968 0.0 1010102
06:00+6юв26897 0.0 1007143
09:00+11юв466437 0.0 1006526
12:00+16юв5651100 0.0 10051528
15:00+14ююв5870100 0.1 1003941
18:00+13ююв4776100 0.0 1003703
21:00+11юв3895100 0.4 1003265
14 мая, пт
пт1400:00+12ююв41098100 0.6 1003351
03:00+11ююв4109599 0.9 1003364
06:00+9ююв389793 0.0 1003273
09:00+13ю4880100 0.0 1003465
12:00+17ююз686280 0.3 10041481
15:00+17юз466198 1.1 10041340
18:00+18юз456024 0.4 10041262
21:00+12зюз388916 0.9 1005190
15 мая, сб
сб1500:00+10юз389783 0.0 1006200
03:00+11юз389698 0.0 1006353
06:00+11з4996100 0.2 1007499
09:00+11з4894100 0.4 1009483
12:00+14з467374 0.0 1010921
15:00+15з466397 0.1 10111179
18:00+15з4659100 0.0 10101331
21:00+13ююз227057 0.0 101035
16 мая, вс
вс1600:00+10ююз22896 0.0 101124
03:00+9ююв229255 0.0 101222
06:00+9юв2389100 0.0 101265
09:00+15юв4768100 0.0 1011392
12:00+20юв585796 0.0 10101230
15:00+21ююв6861100 1.1 10091503
18:00+19ююв5971100 1.4 10081054
21:00+14ююв51196100 8.2 1008433
17 мая, пн
пн1700:00+13юз2598100 5.2 1008195
03:00+12зюз2497100 5.3 1009110
06:00+11з2498100 0.1 1009123
09:00+14з348759 0.2 1010558
12:00+18сз225869 0.0 10091187
15:00+21с224699 0.1 10082044
18:00+19всв335855 0.1 10071189
21:00+14вюв21821 0.3 100711